Weather History for Aniak, AK

Change the Weather History Date:

Thursday, August 1, 2013

  Actual Average Record
Temperature  
Mean Temperature 63 °F -  
Max Temperature 69 °F 60 °F 80 °F (2002)
Min Temperature 57 °F 47 °F 39 °F (2000)
Degree Days  
Heating Degree Days 2    
Growing Degree Days 13 (Base 50)    
Moisture  
Dew Point 53 °F    
Average Humidity 71    
Maximum Humidity 82    
Minimum Humidity 56    
Precipitation  
Precipitation 0.04 in - - ()
Sea Level Pressure  
Sea Level Pressure 29.89 in    
Wind  
Wind Speed 5 mph (SE)    
Max Wind Speed 13 mph    
Max Gust Speed 20 mph    
Visibility 10 miles    
Events      
Averages and records for this station are not official NWS values.
T = Trace of Precipitation, MM = Missing Value Source: NWS Daily Summary

Daily Weather History Graph

Daily Weather History Graph

Search for Another Location

Airport:

Trip Planner

Search our weather history database for the weather conditions in past years. The results will help you decide how hot, cold, wet, or windy it might be!

Date:

Astronomy

Aug. 01, 2013 Rise Set
Actual Time 6:08 AM AKDT 11:18 PM AKDT
Civil Twilight 5:01 AM AKDT 12:24 AM AKDT
Nautical Twilight 3:16 AM AKDT 2:11 AM AKDT
Astronomical Twilight Sun does not rise Sun does not rise
Moon 1:44 AM AKDT (8/1) 7:50 PM AKDT (8/1)
Length of Visible Light 19h 23m
Length of Day
17h 09m
Waning Crescent, 22% of the Moon is Illuminated
Aug 1
Waning Crescent
Aug 6
New
Aug 14
First Quarter
Aug 20
Full
Aug 28
Last Quarter

Hourly Weather History & Observations

Time (AKDT) Temp. Dew Point Humidity Pressure Visibility Wind Dir Wind Speed Gust Speed Precip Events Conditions
12:16 AM 64.4 °F 53.6 °F 68% 29.98 in 10.0 mi SE 3.5 mph - N/A   Clear
12:36 AM 64.4 °F 53.6 °F 68% 29.98 in 10.0 mi SE 3.5 mph - N/A   Clear
12:56 AM 62.6 °F 53.6 °F 72% 29.98 in 10.0 mi Calm Calm - N/A   Clear
1:16 AM 60.8 °F 53.6 °F 77% 29.98 in 10.0 mi Calm Calm - N/A   Clear
1:36 AM 59.0 °F 53.6 °F 82% 29.98 in 10.0 mi Calm Calm - N/A   Partly Cloudy
1:56 AM 59.0 °F 53.6 °F 82% 29.98 in 10.0 mi Calm Calm - N/A   Partly Cloudy
2:16 AM 60.8 °F 53.6 °F 77% 29.98 in 10.0 mi Calm Calm - N/A   Mostly Cloudy
2:36 AM 60.8 °F 53.6 °F 77% 29.98 in 10.0 mi Calm Calm - N/A   Mostly Cloudy
2:56 AM 60.8 °F 53.6 °F 77% 29.97 in 10.0 mi Calm Calm - N/A   Scattered Clouds
3:16 AM 62.6 °F 55.4 °F 77% 29.96 in 10.0 mi East 3.5 mph - N/A   Mostly Cloudy
3:36 AM 62.6 °F 53.6 °F 72% 29.96 in 10.0 mi ESE 5.8 mph - N/A   Mostly Cloudy
3:56 AM 60.8 °F 53.6 °F 77% 29.95 in 10.0 mi ESE 8.1 mph - N/A   Mostly Cloudy
4:16 AM 62.6 °F 53.6 °F 72% 29.95 in 10.0 mi East 3.5 mph - N/A   Scattered Clouds
4:36 AM 62.6 °F 53.6 °F 72% 29.95 in 10.0 mi ESE 6.9 mph - N/A   Scattered Clouds
4:56 AM 62.6 °F 53.6 °F 72% 29.95 in 10.0 mi ESE 4.6 mph - N/A   Mostly Cloudy
5:16 AM 60.8 °F 53.6 °F 77% 29.94 in 10.0 mi ESE 6.9 mph - N/A   Overcast
5:36 AM 60.8 °F 53.6 °F 77% 29.94 in 10.0 mi ESE 4.6 mph - N/A   Scattered Clouds
5:56 AM 60.8 °F 53.6 °F 77% 29.94 in 10.0 mi Calm Calm - N/A   Clear
6:16 AM 60.8 °F 53.6 °F 77% 29.93 in 10.0 mi Calm Calm - N/A   Clear
6:36 AM 60.8 °F 53.6 °F 77% 29.93 in 10.0 mi Calm Calm - N/A   Clear
6:56 AM 60.8 °F 53.6 °F 77% 29.93 in 10.0 mi East 4.6 mph - N/A   Clear
7:16 AM 60.8 °F 53.6 °F 77% 29.93 in 10.0 mi SSE 3.5 mph - N/A   Clear
7:36 AM 60.8 °F 53.6 °F 77% 29.93 in 10.0 mi East 5.8 mph - N/A   Clear
7:56 AM 60.8 °F 53.6 °F 77% 29.93 in 10.0 mi SE 4.6 mph - N/A   Clear
8:16 AM 60.8 °F 53.6 °F 77% 29.93 in 10.0 mi SE 5.8 mph - N/A   Clear
8:36 AM 60.8 °F 53.6 °F 77% 29.93 in 10.0 mi SE 4.6 mph - N/A   Clear
8:56 AM 60.8 °F 53.6 °F 77% 29.93 in 10.0 mi ESE 6.9 mph - N/A   Clear
9:16 AM 60.8 °F 53.6 °F 77% 29.93 in 10.0 mi East 3.5 mph - N/A   Clear
9:36 AM 60.8 °F 53.6 °F 77% 29.92 in 10.0 mi East 4.6 mph - N/A   Clear
9:56 AM 62.6 °F 53.6 °F 72% 29.92 in 10.0 mi ESE 6.9 mph - N/A   Clear
10:16 AM 62.6 °F 53.6 °F 72% 29.91 in 10.0 mi ESE 6.9 mph - N/A   Clear
10:36 AM 64.4 °F 53.6 °F 68% 29.90 in 10.0 mi ESE 9.2 mph - N/A   Clear
10:56 AM 66.2 °F 53.6 °F 64% 29.90 in 10.0 mi ESE 11.5 mph - N/A   Clear
11:16 AM 66.2 °F 53.6 °F 64% 29.90 in 10.0 mi ESE 10.4 mph - N/A   Clear
11:36 AM 66.2 °F 53.6 °F 64% 29.89 in 10.0 mi ESE 9.2 mph - N/A   Partly Cloudy
11:56 AM 66.2 °F 53.6 °F 64% 29.89 in 10.0 mi ESE 11.5 mph 17.3 mph N/A   Partly Cloudy
12:16 PM 66.2 °F 53.6 °F 64% 29.88 in 10.0 mi ESE 11.5 mph - N/A   Mostly Cloudy
12:36 PM 66.2 °F 53.6 °F 64% 29.88 in 10.0 mi SE 10.4 mph 17.3 mph N/A   Mostly Cloudy
12:56 PM 68.0 °F 53.6 °F 60% 29.87 in 10.0 mi SE 4.6 mph - N/A   Scattered Clouds
1:16 PM 68.0 °F 53.6 °F 60% 29.87 in 10.0 mi SE 5.8 mph - N/A   Mostly Cloudy
1:36 PM 68.0 °F 53.6 °F 60% 29.87 in 10.0 mi SE 9.2 mph - N/A   Overcast
1:56 PM 69.8 °F 53.6 °F 56% 29.86 in 10.0 mi SE 12.7 mph 16.1 mph N/A   Mostly Cloudy
2:16 PM 69.8 °F 53.6 °F 56% 29.86 in 10.0 mi SSE 11.5 mph 17.3 mph N/A   Partly Cloudy
2:36 PM 68.0 °F 51.8 °F 56% 29.86 in 10.0 mi SSE 8.1 mph 16.1 mph N/A   Mostly Cloudy
2:56 PM 68.0 °F 53.6 °F 60% 29.86 in 10.0 mi SSE 9.2 mph - N/A   Overcast
3:16 PM 66.2 °F 51.8 °F 60% 29.85 in 10.0 mi SSE 8.1 mph - N/A   Partly Cloudy
3:36 PM 66.2 °F 53.6 °F 64% 29.85 in 10.0 mi SE 6.9 mph - N/A   Scattered Clouds
3:56 PM 66.2 °F 51.8 °F 60% 29.85 in 10.0 mi SSE 6.9 mph 18.4 mph N/A   Overcast
4:16 PM 66.2 °F 51.8 °F 60% 29.85 in 10.0 mi SSE 9.2 mph - N/A   Overcast
4:36 PM 64.4 °F 51.8 °F 64% 29.85 in 10.0 mi SE 8.1 mph - N/A   Mostly Cloudy
4:56 PM 64.4 °F 53.6 °F 68% 29.85 in 10.0 mi SE 8.1 mph - N/A   Mostly Cloudy
5:16 PM 64.4 °F 53.6 °F 68% 29.84 in 10.0 mi SE 6.9 mph - N/A   Overcast
5:36 PM 64.4 °F 53.6 °F 68% 29.84 in 10.0 mi SE 6.9 mph - N/A   Mostly Cloudy
5:56 PM 64.4 °F 51.8 °F 64% 29.84 in 10.0 mi SE 11.5 mph 19.6 mph N/A   Overcast
6:16 PM 62.6 °F 51.8 °F 68% 29.83 in 10.0 mi SE 8.1 mph - N/A   Mostly Cloudy
6:36 PM 62.6 °F 51.8 °F 68% 29.83 in 10.0 mi SE 9.2 mph - N/A   Partly Cloudy
6:56 PM 62.6 °F 51.8 °F 68% 29.82 in 10.0 mi SE 6.9 mph - N/A   Mostly Cloudy
7:16 PM 62.6 °F 53.6 °F 72% 29.82 in 10.0 mi SE 3.5 mph - N/A   Mostly Cloudy
7:36 PM 62.6 °F 53.6 °F 72% 29.82 in 10.0 mi SE 4.6 mph - N/A   Mostly Cloudy
7:56 PM 60.8 °F 53.6 °F 77% 29.81 in 10.0 mi SE 5.8 mph - N/A   Partly Cloudy
8:16 PM 60.8 °F 51.8 °F 72% 29.81 in 10.0 mi SSE 3.5 mph - N/A   Partly Cloudy
8:36 PM 60.8 °F 51.8 °F 72% 29.81 in 10.0 mi SE 4.6 mph - 0.01 in   Mostly Cloudy
8:56 PM 60.8 °F 51.8 °F 72% 29.81 in 10.0 mi SE 5.8 mph - 0.03 in   Overcast
9:16 PM 59.0 °F 51.8 °F 77% 29.81 in 10.0 mi SE 8.1 mph - 0.01 in   Overcast
9:36 PM 59.0 °F 51.8 °F 77% 29.81 in 10.0 mi SE 6.9 mph - 0.01 in   Mostly Cloudy
9:56 PM 59.0 °F 51.8 °F 77% 29.81 in 10.0 mi SE 5.8 mph - 0.01 in   Overcast
10:16 PM 59.0 °F 51.8 °F 77% 29.81 in 10.0 mi SE 6.9 mph - N/A   Mostly Cloudy
10:36 PM 59.0 °F 51.8 °F 77% 29.81 in 10.0 mi ESE 8.1 mph - N/A   Overcast
10:56 PM 57.2 °F 51.8 °F 82% 29.81 in 10.0 mi ESE 9.2 mph - N/A   Overcast
11:16 PM 57.2 °F 51.8 °F 82% 29.81 in 10.0 mi ESE 8.1 mph - N/A   Mostly Cloudy
11:36 PM 57.2 °F 51.8 °F 82% 29.81 in 10.0 mi ESE 6.9 mph - N/A   Mostly Cloudy
11:56 PM 57.2 °F 51.8 °F 82% 29.81 in 10.0 mi ESE 11.5 mph 16.1 mph N/A   Overcast